Kuiper-00021

operational
NORAD ID: 63736 Int'l Des: 2025-088 Owner: KUIP Country: US Constellation: kuiper
LEOCIRCULAR

About Kuiper-00021

Description loading...

Live Position

Loading 3D Globe...

Upcoming Passes

Altitude History

Altitude vs Time

uPlot chart will show altitude changes over time

Two-Line Element Set

1 63736U 25088N 25344.17348135 .00001971 00000-0 28741-3 0 9991
2 63736 51.9004 139.9172 0007912 136.3214 223.8375 14.79967618 34226
Epoch: Dec 10, 2025 • Age: 16 hours

Current Status

Altitude 642.0 km
Velocity 7.53 km/s
Sub-Earth Point -24.95°S, 92.5°E
Launch Date Apr 28, 2025
Age 0.6 years
Type internet

Technical Details

Classification Payload
Mass 490.00 kg
Dry Mass 490.00 kg
Total Mass 490.00 kg
Length 1.80 m
Diameter 0.70 m
Span 5.00 m
Shape Box + 2 pan
Manufacturer KUIP
Bus Type Kuiper
Phase Status In Orbit
Owner/State KUIP/US

Large Constellations

Loading constellations...